Location: Blienschwiller
(48.3416°N, 7.4182°E)
Time: 04:53:55
(UTC+00:00)

Cosmos 2061 Rocket - Pass Details

Date: 18 February 2020
Orbit: 965 x 1014 km, 82.9° (Epoch: 02 April)

Event Time Altitude Azimuth Distance (km) Brightness Sun altitude
Rises 05:29:47 0° 348° (NNW) 3,716 6.9 -11.2°
Reaches altitude 10° 05:32:21 10° 346° (NNW) 2,756 6.2 -10.8°
Maximum altitude 05:38:34 65° 266° (W) 1,075 4.0 -9.7°
Drops below altitude 10° 05:44:41 10° 187° (S) 2,708 6.4 -8.7°
Sets 05:47:11 0° 184° (S) 3,646 7.1 -8.3°
